Location: El Bakhil
(32.7726°N, 5.5387°W)
Time: 04:56:01
(UTC+00:00)

EO-88 - Visible Passes

Search period start: 29 July 2021 00:00
Search period end: 08 August 2021 00:00
Orbit: 477 x 484 km, 97.3° (Epoch: 28 July)

Date Brightness Start Highest point End Pass type
(mag) Time Alt. Az. Time Alt. Az. Time Alt. Az.
29 Jul ? 22:19:12 21° NNW 22:19:12 21° NNW 22:20:32 10° NNW visible
30 Jul ? 21:53:23 24° N 21:53:23 24° N 21:54:58 10° N visible
31 Jul ? 21:27:34 18° NNE 21:27:34 18° NNE 21:28:54 10° NNE visible
01 Aug ? 21:01:45 10° NE 21:01:45 10° NE 21:01:47 10° NE visible
01 Aug ? 22:36:01 14° NW 22:36:01 14° NW 22:36:43 10° NW visible
02 Aug ? 22:10:12 20° NNW 22:10:12 20° NNW 22:11:27 10° NNW visible
03 Aug ? 21:44:23 20° NNE 21:44:23 20° NNE 21:45:41 10° N visible
04 Aug ? 21:18:33 14° NE 21:18:33 14° NE 21:19:22 10° NNE visible
05 Aug ? 22:26:59 15° NNW 22:26:59 15° NNW 22:27:41 10° NNW visible
06 Aug ? 22:01:09 18° N 22:01:09 18° N 22:02:11 10° N visible
07 Aug ? 21:35:18 16° NNE 21:35:18 16° NNE 21:36:15 10° N visible
